Dewpoint
65 58 56 57 49 45 40 32 9 13 15 10 17 15 5 19 22 21 21 20 15 22 42 59 49 55 40 43 43 53 60 49 49 44 41 52 66 68 69 71 72 73 73 73 73 73 73 73 73 72 72 72 72 72 71 71 70 70 71 71 70 70 70 70 70 70 70 70 69 69 69 69 68 68 67 67 67 67 67 67 67 66 67 68 69 69 69 70 70 70 69 69 70 69 69 69 69
55 50 51 52 48 40 37 26 22 22 19 7 13 20 16 22 23 21 21 19 15 50 56 59 60 60 60 60 61 55 56 63 63 60 64 68 69 69 71 72 72 72 73 73 73 73 73 73 73 73 73 73 72 71 71 71 70 70 70 70 70 70 70 70 70 70 70 70 69 69 69 68 68 67 67 67 66 66 67 65 65 66 67 68 68 68 68 68 69 69 69 69 69 69 68 68 69
55 45 42 48 42 42 39 29 14 22 17 4 2 18 22 20 19 20 22 19 23 56 57 59 59 58 57 58 52 48 52 64 64 65 66 68 66 67 71 72 72 73 73 73 73 73 73 73 73 73 73 72 72 72 72 72 70 70 70 70 70 70 70 70 70 70 70 69 69 69 69 69 68 68 68 66 66 66 66 66 66 66 67 67 67 68 68 68 68 69 68 68 69 68 67 68 69
48 52 39 42 40 34 32 30 23 19 13 5 14 14 22 20 19 21 19 17 19 52 52 57 56 59 57 56 57 60 60 61 64 65 65 66 66 70 71 72 73 73 73 73 73 73 73 73 73 73 72 72 71 72 72 72 72 71 70 70 70 70 70 70 70 70 70 69 69 69 69 69 68 68 68 68 68 68 67 66 67 67 67 68 68 68 68 68 68 68 69 68 68 67 68 69 69
45 50 46 36 32 32 32 31 26 20 12 20 8 11 23 21 17 17 13 13 14 31 51 57 56 60 60 59 60 53 57 63 64 65 65 68 70 71 72 72 72 72 72 73 73 73 73 73 73 72 72 72 72 72 72 71 71 71 70 70 70 70 70 70 70 70 70 69 69 69 69 69 68 68 68 69 69 69 69 69 69 69 69 68 68 68 68 68 68 68 68 68 67 67 68 69 69
40 41 44 41 36 33 27 24 26 22 12 17 16 17 20 20 19 17 19 16 13 17 45 57 54 57 61 62 62 59 63 60 63 64 67 68 70 71 72 72 71 72 72 73 73 72 73 73 73 72 72 72 72 72 71 71 71 70 71 71 70 70 70 70 70 70 70 69 69 69 69 69 68 68 70 71 70 71 70 70 69 69 69 68 68 69 69 69 68 68 68 67 67 68 69 69 68
40 35 34 32 31 33 27 24 25 25 23 21 20 21 23 23 21 21 20 13 30 56 59 57 61 60 59 61 63 64 64 65 64 65 68 69 71 71 72 71 71 72 72 72 72 73 73 73 73 73 72 72 72 72 71 71 71 71 71 70 70 70 70 70 69 70 70 69 69 69 69 69 68 69 71 71 71 70 70 70 70 70 69 69 69 69 69 69 69 68 68 67 67 68 69 69 68
45 34 34 29 27 27 26 27 28 27 24 24 24 24 25 26 25 26 24 14 10 46 57 58 59 60 59 64 60 64 66 66 66 68 69 70 70 71 71 71 71 72 72 72 73 73 73 73 73 73 72 72 72 72 72 71 71 71 70 70 70 70 70 70 70 70 69 69 69 69 69 69 68 70 70 70 70 70 71 71 71 70 70 69 69 69 69 70 69 68 68 68 68 68 69 68 68
40 33 37 24 25 26 23 22 22 26 27 26 25 30 40 35 31 28 20 16 34 55 56 57 57 56 61 62 62 63 65 67 68 69 69 69 69 70 71 71 71 72 72 73 72 72 73 73 73 73 73 73 72 72 71 71 71 71 70 70 70 71 71 70 70 70 70 70 70 69 69 69 69 69 69 69 71 71 71 71 70 70 70 70 70 70 70 69 69 68 68 68 69 69 69 68 68
37 29 26 27 25 22 24 21 20 18 21 21 21 20 20 21 19 21 19 39 48 58 60 62 60 58 62 61 62 64 64 67 67 67 68 69 69 70 71 71 71 71 72 72 72 72 72 74 73 72 72 73 72 72 71 72 71 71 71 71 71 71 71 71 71 71 71 70 70 70 70 70 69 69 69 70 71 72 71 71 70 70 70 70 70 70 70 69 69 69 68 68 69 69 69 68 67
33 31 30 25 25 22 21 19 23 23 24 25 22 22 22 21 20 13 15 43 54 56 60 61 61 61 61 61 62 65 66 66 66 65 67 69 70 70 70 71 71 72 72 72 72 72 72 73 73 73 72 72 72 72 72 72 71 71 71 71 71 71 71 71 71 71 70 70 70 70 70 69 69 69 70 71 71 71 71 71 70 70 70 70 70 70 69 69 69 69 69 69 69 70 69 68 67
30 30 26 25 25 20 22 23 24 24 24 22 19 18 14 20 17 47 52 51 55 57 57 59 59 62 61 61 62 64 65 65 65 66 68 69 69 70 70 71 71 72 72 72 72 72 72 72 72 73 73 72 72 72 72 72 72 72 72 72 72 71 71 71 71 71 70 70 70 71 70 69 69 70 71 71 71 71 71 71 70 70 70 70 70 70 69 69 69 69 69 69 69 70 69 68 67
30 25 24 21 22 24 28 24 22 35 26 17 18 12 14 12 14 43 44 54 54 53 51 58 62 61 59 61 63 65 64 65 66 68 69 69 69 70 70 71 71 71 72 71 72 72 72 72 72 72 72 72 72 72 72 72 72 72 72 72 72 71 71 71 71 71 70 70 71 71 70 70 70 71 72 72 72 72 71 70 70 70 70 70 70 70 69 69 69 69 68 69 70 70 69 68 67
29 26 24 20 23 22 18 20 18 19 16 15 12 13 15 15 19 47 54 53 56 53 60 63 63 63 61 62 62 63 64 66 67 69 69 69 69 69 70 70 71 71 71 71 71 72 71 72 72 71 72 72 72 72 72 72 72 72 72 72 71 71 71 71 71 71 71 71 71 71 71 70 71 72 72 72 71 71 70 70 70 70 70 70 70 70 70 69 69 68 68 69 69 70 69 68 68
33 29 29 25 21 19 19 19 17 14 10 11 13 12 15 25 44 50 53 55 58 60 62 63 63 57 59 60 60 62 64 66 68 69 69 69 69 69 69 70 70 70 71 71 71 71 71 71 71 71 71 71 71 71 71 72 72 72 72 72 71 71 71 72 72 71 71 71 71 71 71 71 71 72 72 72 71 71 70 70 70 70 70 70 70 70 70 69 69 69 68 69 69 69 69 68 68
36 22 25 24 20 18 19 18 14 12 12 12 12 12 18 33 39 46 49 53 59 60 59 57 60 57 59 61 61 64 65 67 68 69 68 68 68 69 69 69 70 70 70 71 71 71 71 71 71 71 70 71 71 71 71 71 71 72 72 71 71 71 71 72 72 72 72 71 71 71 71 72 70 71 71 71 71 70 70 70 70 70 70 70 70 70 70 69 69 69 69 69 69 69 68 68 67
24 26 23 19 19 15 13 13 10 10 11 10 10 9 17 34 34 54 57 59 58 59 62 63 62 64 62 63 64 65 67 68 68 68 67 67 67 67 68 68 69 69 70 70 70 71 71 71 70 70 70 71 71 71 70 70 71 71 71 71 71 71 71 72 72 71 71 71 71 71 71 70 70 70 71 71 71 70 70 70 70 70 70 70 70 70 70 69 69 69 69 69 69 68 68 67 67
24 25 22 20 18 14 17 12 11 9 8 8 10 11 19 37 43 50 56 58 60 60 61 62 64 63 64 65 66 66 67 67 67 66 66 65 66 65 66 67 67 67 68 69 70 71 70 70 70 70 71 71 71 71 70 70 70 70 70 70 71 70 71 71 70 70 71 70 70 70 69 70 69 69 70 71 70 70 70 70 70 70 70 70 70 70 70 69 70 70 69 69 69 69 68 67 67
25 23 23 19 17 16 19 17 15 10 10 12 11 11 11 24 46 37 51 53 56 57 61 63 62 63 64 65 65 66 66 66 66 65 65 64 64 64 65 65 66 67 67 68 69 70 70 70 70 70 70 71 70 70 70 70 69 69 69 70 70 70 70 70 70 69 69 69 69 69 70 69 69 69 70 70 70 70 70 70 70 70 70 70 70 70 70 70 70 69 69 69 68 68 66 66 65
26 22 19 19 19 17 15 15 13 11 13 12 10 10 9 9 20 17 47 52 55 56 57 59 61 61 62 64 65 65 65 65 65 64 64 64 63 63 64 64 65 66 66 68 68 70 70 70 70 70 70 70 70 70 70 70 70 69 69 69 69 69 68 70 69 69 69 69 68 68 68 69 69 69 70 70 70 70 70 70 69 70 69 70 69 70 70 70 70 69 69 68 66 66 65 65 65
23 24 20 19 19 17 19 16 15 15 15 13 11 12 9 9 11 31 50 50 47 50 56 58 60 61 62 63 64 64 64 64 64 64 63 63 63 62 63 64 65 66 66 68 68 69 69 70 70 70 70 70 70 70 70 70 70 69 69 69 69 68 68 68 68 68 68 68 68 68 68 68 68 68 68 68 68 68 69 69 68 68 67 68 68 66 67 68 67 66 66 66 65 65 64 65 64
21 24 23 20 15 15 16 14 13 14 16 12 10 8 8 16 42 48 47 45 40 44 51 59 63 62 62 63 63 64 64 64 64 63 62 62 62 62 62 64 65 66 67 67 68 68 69 69 70 70 70 70 70 70 70 70 70 69 69 69 68 69 68 68 67 67 67 68 68 68 68 67 67 67 67 67 67 68 68 67 66 66 66 66 67 66 65 65 65 65 65 65 65 64 64 64 63
17 19 17 16 15 16 18 14 14 12 12 10 13 10 10 10 17 39 39 30 23 36 54 62 63 63 63 63 63 63 63 63 63 62 62 61 61 62 62 63 64 65 66 66 68 68 69 69 69 70 70 70 70 70 70 70 69 70 69 69 69 69 68 68 68 67 67 67 68 68 67 67 67 67 67 67 67 68 67 66 66 66 66 66 67 66 65 65 65 65 65 65 65 64 63 63 62
20 19 17 16 15 14 15 13 13 12 12 10 10 12 8 8 6 20 26 19 19 58 62 63 63 63 63 63 63 63 63 63 62 62 62 62 62 62 62 62 64 64 64 66 67 68 68 69 69 69 69 69 69 70 70 69 69 69 69 70 69 70 69 68 68 67 67 67 68 68 68 67 67 67 67 68 68 67 67 66 65 66 66 67 66 66 65 64 64 65 65 65 65 64 62 62 61
17 16 15 14 15 13 13 12 11 11 11 11 11 8 7 8 7 8 9 30 60 63 63 63 63 63 62 62 62 62 62 62 62 62 62 62 61 62 62 62 63 64 64 65 66 67 68 68 68 69 69 69 69 69 69 69 69 69 69 69 68 70 69 69 68 68 67 68 67 67 68 67 67 67 67 68 68 67 66 66 66 66 66 66 66 65 64 63 63 64 64 65 64 63 63 62 61
15 17 17 14 12 12 11 9 8 9 10 11 10 9 8 9 11 8 13 54 61 63 63 63 62 62 62 62 62 62 62 62 62 61 61 61 60 61 62 62 63 64 64 64 65 66 67 67 67 68 68 68 69 69 69 68 68 69 69 69 68 69 68 68 68 68 68 68 67 67 67 66 66 67 67 68 67 67 66 65 66 66 66 65 65 64 63 63 62 62 63 64 63 63 62 63 62
16 16 15 13 11 9 8 8 8 10 9 11 8 8 8 9 8 5 15 54 62 62 62 62 62 62 62 62 62 62 61 61 61 62 61 60 60 61 61 62 63 63 63 63 64 65 66 66 66 66 67 68 68 68 68 68 68 68 68 69 69 68 68 68 68 68 68 68 68 67 66 66 65 66 67 67 67 66 65 65 65 64 64 64 64 64 63 62 61 62 63 64 64 63 63 63 62
11 10 12 11 10 9 7 7 6 10 6 9 8 8 10 11 8 6 24 52 62 61 62 62 62 62 62 62 62 62 61 61 61 61 61 60 60 61 61 62 62 62 63 63 63 64 65 65 66 65 66 68 68 68 68 67 67 68 68 68 68 68 68 68 68 68 68 67 67 67 66 66 66 65 66 66 66 65 65 64 64 64 64 63 64 63 63 62 61 61 62 63 64 63 63 63 63
13 12 9 9 8 6 8 6 7 10 9 10 8 8 7 9 8 12 26 60 61 61 61 61 62 62 61 61 61 61 61 61 61 61 61 61 61 61 61 62 62 62 62 62 63 65 65 65 65 65 65 66 66 67 67 67 67 67 67 67 68 68 68 67 67 67 68 67 67 67 66 66 66 65 66 66 66 65 64 64 64 64 64 64 63 63 63 62 62 62 63 64 64 63 62 62 63
13 10 10 7 7 4 6 11 10 11 11 8 9 7 8 8 8 9 33 60 61 61 61 61 62 62 61 61 61 61 61 61 61 61 61 61 61 61 62 62 62 62 62 62 63 64 64 64 65 65 65 65 65 65 66 66 66 67 67 67 68 67 67 67 67 67 68 67 67 67 66 66 66 65 65 65 65 65 64 64 64 64 64 63 63 63 63 62 62 62 63 63 64 62 62 62 62
10 11 7 7 5 6 7 11 10 9 12 11 9 11 7 8 6 9 27 60 60 60 61 61 62 62 61 61 61 61 61 61 61 61 60 60 61 61 62 61 62 62 61 61 62 63 64 64 65 65 65 64 65 65 66 65 65 66 66 66 67 67 67 66 67 67 67 67 67 67 66 66 66 65 65 65 65 64 64 64 63 63 64 64 63 63 63 62 63 63 63 63 62 62 62 62 62
17 7 9 16 6 9 7 14 14 7 8 11 8 14 9 7 7 8 18 57 59 59 61 61 61 62 61 61 60 61 61 61 61 61 60 60 61 61 62 62 62 62 62 62 62 63 64 64 65 64 64 64 64 65 65 65 65 65 65 66 66 66 66 66 66 66 67 67 67 67 66 66 66 65 65 65 65 64 64 64 63 64 65 64 64 64 63 63 63 63 63 62 62 61 62 61 61
17 13 18 12 10 7 3 7 14 11 10 7 7 5 6 6 6 8 15 56 58 58 60 61 61 62 61 61 60 60 61 61 61 61 60 60 61 61 62 62 62 62 62 62 62 62 63 64 65 63 64 65 65 65 65 64 65 65 65 66 66 66 66 65 65 65 66 67 67 67 67 66 66 66 65 65 64 64 64 63 64 65 65 64 64 64 63 63 63 62 62 62 62 62 61 61 61
17 18 11 17 6 9 3 7 7 7 6 7 6 6 8 9 9 8 19 46 53 54 57 60 61 62 62 61 60 60 61 61 61 61 60 60 61 61 61 63 62 62 62 62 63 63 63 63 63 64 64 65 65 65 65 64 64 65 65 66 66 66 66 66 65 65 66 66 67 67 67 67 67 66 66 65 64 64 64 64 64 64 64 64 64 64 64 64 63 63 62 62 62 62 61 61 61
11 13 13 12 14 13 8 8 8 10 9 7 8 8 8 7 7 9 22 39 45 50 53 57 60 61 61 61 61 60 60 61 61 61 60 60 60 60 61 61 61 62 62 62 62 63 63 62 62 64 63 64 65 65 65 65 65 65 66 66 66 66 66 66 66 66 66 66 67 67 67 65 66 66 66 65 64 64 64 64 64 64 64 63 63 63 63 63 63 62 62 62 62 61 61 61 61
15 15 14 13 10 10 8 9 10 11 11 9 7 9 8 13 26 33 36 42 44 47 52 53 58 61 61 61 61 60 60 61 61 62 60 60 60 60 61 60 61 61 62 62 62 62 62 62 62 62 63 64 65 65 65 65 65 64 64 65 65 65 66 66 66 66 66 66 66 67 66 65 65 65 65 65 64 64 64 64 64 64 63 63 63 63 62 62 62 62 62 61 61 61 61 62 62
14 12 11 9 9 9 10 10 11 11 11 12 12 13 14 32 37 39 44 50 49 42 47 51 52 58 61 61 60 61 61 61 62 62 60 59 60 60 61 61 61 62 62 62 62 62 62 62 62 62 62 63 64 64 65 65 64 64 64 64 64 65 65 66 65 65 66 66 66 66 65 65 65 65 65 64 64 64 64 63 63 63 63 63 63 63 63 63 62 62 62 61 60 59 61 62 62
10 11 9 10 9 9 10 10 13 16 17 15 12 21 34 37 42 44 49 50 50 51 47 45 49 53 57 60 60 60 61 61 61 61 60 59 60 61 62 63 62 62 63 64 64 64 64 63 63 62 63 63 63 64 65 65 65 64 64 64 65 65 65 65 64 65 65 65 65 65 65 65 64 64 65 64 64 64 63 63 63 62 63 63 63 63 62 63 63 62 61 61 62 61 60 62 62
16 10 14 11 10 11 12 16 17 14 14 15 13 32 32 31 39 44 48 50 52 53 53 53 52 51 53 58 60 60 60 60 60 61 61 60 61 62 62 62 63 63 63 64 64 64 64 64 64 63 63 64 64 64 64 64 65 65 64 64 65 65 66 66 66 65 65 65 65 65 64 64 64 63 64 64 64 64 63 63 62 62 62 63 63 62 63 62 62 62 61 61 61 61 61 62 62
19 14 11 9 13 14 11 18 20 16 14 16 16 29 30 34 38 44 46 51 52 53 53 53 54 54 53 53 57 59 59 59 59 60 60 61 62 62 62 62 63 63 63 63 64 64 65 65 64 64 63 64 65 64 65 65 65 65 64 64 65 65 64 66 66 66 66 65 65 66 64 64 64 63 63 63 63 64 63 63 62 63 62 63 62 62 62 62 62 62 62 62 61 59 60 61 62
22 19 15 14 15 17 14 17 20 26 23 23 19 24 28 35 42 44 46 50 51 52 52 52 53 54 56 54 53 56 58 59 59 59 60 60 61 61 61 62 63 63 63 63 63 64 65 65 65 64 64 64 65 65 65 65 65 64 63 64 64 64 65 65 64 64 65 66 65 64 64 64 64 64 64 63 63 62 63 62 62 63 63 63 63 62 62 62 62 62 62 62 61 60 60 61 61
13 22 15 15 17 18 16 19 16 19 15 19 11 12 23 31 42 44 46 49 50 51 51 51 52 53 54 55 55 57 59 59 59 59 59 60 61 61 61 62 63 63 62 62 63 64 64 65 65 65 65 65 64 65 65 65 64 63 63 62 62 62 62 62 62 63 64 64 65 64 64 64 64 64 64 64 63 63 63 63 62 63 62 63 63 62 62 62 62 62 62 62 61 61 60 60 60
11 12 16 16 14 16 15 13 16 11 8 18 22 12 14 19 40 44 46 48 48 50 50 51 52 52 53 54 55 56 57 59 60 60 60 60 60 61 61 61 61 61 61 62 63 63 64 64 64 65 65 65 64 64 65 64 64 63 63 63 62 62 62 62 63 64 64 64 64 63 63 64 64 63 63 63 63 63 63 63 63 63 63 63 63 62 62 62 62 62 62 62 61 61 61 60 60
10 12 17 13 13 15 17 13 13 13 24 27 22 16 12 20 35 41 45 46 47 48 49 51 51 52 53 54 54 54 55 56 58 59 60 60 61 60 60 61 61 60 61 61 62 62 62 63 63 63 64 65 65 65 64 65 64 63 63 63 62 61 61 62 62 63 62 64 64 63 63 63 63 63 63 63 64 64 63 63 63 63 63 63 63 62 62 62 62 63 63 62 62 62 61 61 60
12 18 17 15 15 15 15 11 17 16 15 8 17 21 14 18 31 40 45 44 45 47 49 50 51 51 52 53 53 54 54 55 56 56 58 59 59 60 60 60 60 60 60 60 61 61 61 61 61 62 62 63 62 62 63 65 63 64 62 61 60 61 62 62 63 63 62 63 64 63 63 63 63 63 63 63 64 64 64 63 62 62 63 63 63 62 62 62 62 62 62 62 61 61 61 61 61
10 18 20 19 21 21 15 16 14 18 10 8 14 21 11 22 35 42 44 44 45 47 49 50 51 51 51 51 51 51 52 53 54 55 56 57 58 59 59 59 59 59 59 59 60 60 60 60 60 60 60 62 61 61 62 62 63 62 62 62 61 61 61 61 62 62 62 62 63 63 63 63 62 62 63 63 64 64 64 63 63 62 63 63 63 63 62 62 62 62 62 62 62 61 61 61 61
14 14 14 16 19 21 27 22 19 16 6 12 19 21 16 20 34 42 43 43 47 48 49 50 50 49 49 50 50 51 51 51 51 52 52 53 55 55 56 57 57 58 58 59 59 59 60 60 60 60 60 60 60 62 62 63 63 63 62 62 61 60 60 60 60 60 60 62 62 62 62 63 63 62 63 63 63 64 64 64 64 63 63 63 63 62 62 62 62 62 62 62 62 61 61 61 61
14 14 14 13 16 18 17 19 19 9 8 16 17 22 16 14 34 44 47 47 47 48 47 47 48 48 49 49 49 49 50 50 50 50 50 50 51 51 52 53 54 55 56 58 58 58 59 60 60 60 59 60 60 61 62 63 63 62 62 61 60 60 60 60 59 59 61 61 62 62 62 63 63 63 63 63 63 63 64 64 64 64 63 63 63 62 62 62 62 62 62 63 62 61 61 61 60
13 15 13 12 10 13 6 12 6 5 9 14 24 25 29 36 41 45 46 47 47 48 48 48 47 47 47 48 48 48 48 48 48 49 49 49 49 50 50 51 52 52 53 55 56 58 58 59 60 59 59 58 59 60 61 63 63 62 61 60 60 60 60 60 60 60 61 62 62 62 62 62 62 62 63 63 63 63 63 63 64 63 63 63 63 62 62 62 61 61 62 62 62 62 61 61 60
12 12 14 11 7 4 1 8 9 13 15 17 22 26 33 42 44 46 46 47 48 48 47 47 46 46 46 46 47 46 47 47 48 48 48 48 48 48 49 49 50 50 51 52 53 55 57 58 58 58 58 58 59 60 60 61 61 61 61 61 60 60 60 60 60 61 61 62 62 62 62 62 62 62 63 63 63 63 63 64 64 64 64 63 63 63 62 61 61 61 61 61 62 62 62 61 61
11 13 11 13 12 7 0 10 3 8 12 18 30 30 32 36 39 48 47 47 46 46 45 45 45 44 44 44 44 45 45 45 46 46 47 47 47 47 47 48 48 48 49 51 51 52 54 55 57 57 57 58 58 59 59 61 61 61 61 61 60 60 60 60 61 61 62 62 62 62 62 62 62 63 63 63 63 63 63 63 63 63 63 63 62 62 62 62 61 61 61 61 61 62 62 62 61
15 13 12 12 12 19 11 16 14 14 17 18 29 25 33 39 47 47 46 45 44 44 43 43 43 43 43 43 43 43 43 44 44 44 45 45 45 46 46 46 47 47 48 49 50 51 52 53 54 55 57 57 58 58 58 59 60 61 61 60 60 60 61 61 61 61 62 62 61 62 62 62 63 63 63 63 63 63 62 62 62 62 62 62 62 62 62 62 61 61 61 61 60 61 61 61 61
17 10 12 16 17 17 14 14 19 16 22 24 25 38 41 46 46 44 44 43 43 42 42 42 42 42 43 43 43 43 43 43 43 44 44 44 44 44 45 45 46 46 47 48 49 49 50 51 52 53 54 55 58 58 58 58 59 60 60 60 60 60 61 61 61 61 61 61 62 62 62 62 63 63 62 62 61 62 62 62 62 62 61 61 61 61 62 61 61 62 61 61 61 61 61 61 61
14 13 13 19 21 20 15 10 10 6 12 18 31 34 36 34 32 45 43 42 42 42 41 41 42 42 42 42 42 42 42 43 43 43 43 43 43 44 44 44 45 45 46 47 47 48 49 50 50 52 52 53 55 58 59 58 58 59 59 59 60 60 60 61 61 61 61 61 61 62 62 62 62 62 62 62 61 61 61 63 61 61 61 61 61 61 61 61 62 62 62 62 62 61 61 61 61
12 15 16 14 10 8 15 14 3 3 14 25 32 35 36 36 36 43 42 41 41 41 41 41 41 41 41 41 41 42 42 42 42 42 42 43 43 43 43 44 44 44 45 46 46 47 47 48 49 50 50 52 53 55 58 60 60 59 59 60 60 60 60 60 60 60 60 61 61 61 61 61 61 61 61 61 61 61 60 61 61 61 61 61 61 61 61 61 62 62 61 62 62 61 61 60 60
22 18 17 29 21 19 13 13 15 11 6 22 29 34 32 40 41 43 42 41 41 40 40 40 41 41 41 41 41 41 41 42 42 42 42 42 42 42 43 43 43 43 44 44 45 46 45 47 47 48 49 50 51 53 55 57 60 60 59 59 60 60 60 60 60 60 60 60 61 61 61 61 60 60 60 61 60 60 60 60 60 61 60 60 60 60 61 61 61 61 61 62 62 61 61 60 60
18 19 20 21 23 25 19 22 15 11 14 19 27 26 32 38 44 42 42 41 41 40 40 40 41 41 41 41 41 41 41 41 41 41 42 42 42 42 42 42 42 43 43 43 44 44 45 45 46 46 47 48 50 52 53 54 57 60 60 59 60 60 60 60 60 60 61 61 61 60 60 60 60 60 60 60 60 60 60 60 60 60 60 60 60 60 61 61 61 61 61 62 62 61 61 61 60
22 25 23 19 17 14 11 9 26 22 21 22 26 23 34 40 42 42 41 41 41 41 40 40 40 41 41 41 42 41 41 41 41 41 41 41 42 42 42 42 42 42 42 42 43 43 44 44 45 46 46 47 48 50 51 53 55 58 59 59 59 59 59 59 60 60 60 60 60 60 60 60 59 60 60 60 60 60 60 60 60 60 60 60 60 60 61 61 60 60 61 61 61 61 61 60 60